Novato, CA

8:10 AM PST on November 22, 2019 (GMT -0800)
Gnoss

Weather History for KDVO - September, 2019

Change the Weather History Date:

Monday, September 23, 2019

  Actual Average (KAPC) Record (KAPC)
Temperature  
Mean Temperature 68 °F -  
Max Temperature 89 °F 83 °F 94 °F (2002)
Min Temperature 48 °F 51 °F 39 °F (1932)
Cooling Degree Days 4    
Growing Degree Days 18 (Base 50)    
Moisture  
Dew Point 52 °F    
Average Humidity 62    
Maximum Humidity 100    
Minimum Humidity 27    
Precipitation  
Precipitation 0.00 in - - ()
Sea Level Pressure  
Sea Level Pressure 29.94 in    
Wind  
Wind Speed 3 mph ()    
Max Wind Speed 13 mph    
Max Gust Speed 18 mph    
Visibility 8.9 miles    
Events Fog    
Averages and records for this station are not official NWS values.
T = Trace of Precipitation, MM = Missing Value Source: Averaged Metar Reports

Daily Weather History Graph

Daily Weather History Graph

Search for Another Location

Airport or City:

Astronomy

Sep. 23, 2019 Rise Set
Actual Time 6:58 AM PDT 7:05 PM PDT
Civil Twilight 6:32 AM PDT 7:32 PM PDT
Nautical Twilight 6:01 AM PDT 8:02 PM PDT
Astronomical Twilight 5:30 AM PDT 8:33 PM PDT
Moon 12:53 AM PDT (9/23) 3:58 PM PDT (9/23)
Length of Visible Light 12h 59m
Length of Day
12h 07m
Waning Crescent, 32% of the Moon is Illuminated
Sep 23
Waning Crescent
Sep 28
New
Oct 5
First Quarter
Oct 13
Full
Oct 21
Last Quarter

Hourly Weather History & Observations

Time (PDT) Temp. Heat Index Dew Point Humidity Pressure Visibility Wind Dir Wind Speed Gust Speed Precip Events Conditions
12:15 AM 62.6 °F - 57.2 °F 82% 29.90 in 10.0 mi East 5.8 mph - N/A   Clear
12:35 AM 60.8 °F - 55.4 °F 82% 29.91 in 10.0 mi ESE 6.9 mph - N/A   Clear
12:55 AM 62.6 °F - 57.2 °F 82% 29.91 in 10.0 mi ESE 3.5 mph - N/A   Clear
1:15 AM 60.8 °F - 57.2 °F 88% 29.92 in 10.0 mi Calm Calm - N/A   Clear
1:35 AM 57.2 °F - 55.4 °F 94% 29.93 in 10.0 mi Calm Calm - N/A   Clear
1:55 AM 59.0 °F - 55.4 °F 88% 29.92 in 10.0 mi Calm Calm - N/A   Clear
2:15 AM 59.0 °F - 55.4 °F 88% 29.92 in 10.0 mi Calm Calm - N/A   Clear
2:35 AM 59.0 °F - 57.2 °F 94% 29.91 in 10.0 mi Calm Calm - N/A   Clear
2:55 AM 55.4 °F - 53.6 °F 94% 29.90 in 10.0 mi Calm Calm - N/A   Clear
3:15 AM 53.6 °F - 53.6 °F 100% 29.90 in 4.0 mi Calm Calm - N/A   Clear
3:35 AM 51.8 °F - 50.0 °F 94% 29.91 in 2.0 mi Calm Calm - N/A   Clear
3:55 AM 53.6 °F - 53.6 °F 100% 29.91 in 10.0 mi NNW 4.6 mph - N/A   Clear
4:15 AM 53.6 °F - 53.6 °F 100% 29.91 in 9.0 mi Calm Calm - N/A   Clear
4:35 AM 53.6 °F - 53.6 °F 100% 29.92 in 10.0 mi Calm Calm - N/A   Clear
4:55 AM 55.4 °F - 55.4 °F 100% 29.92 in 10.0 mi SSW 4.6 mph - N/A   Clear
5:15 AM 55.4 °F - 55.4 °F 100% 29.92 in 10.0 mi Calm Calm - N/A   Clear
5:35 AM 53.6 °F - 53.6 °F 100% 29.92 in 10.0 mi Calm Calm - N/A   Clear
5:55 AM 50.0 °F - 50.0 °F 100% 29.92 in 0.5 mi Calm Calm - N/A Fog Fog
6:15 AM 51.8 °F - 51.8 °F 100% 29.93 in 0.2 mi North 3.5 mph - N/A Fog Fog
6:35 AM 48.2 °F - 48.2 °F 100% 29.94 in 0.2 mi NNW 4.6 mph - N/A Fog Fog
6:55 AM 51.8 °F - 51.8 °F 100% 29.94 in 10.0 mi Calm Calm - N/A   Clear
7:15 AM 53.6 °F - 53.6 °F 100% 29.95 in 10.0 mi Calm Calm - N/A   Clear
7:35 AM 51.8 °F - 51.8 °F 100% 29.96 in 7.0 mi Calm Calm - N/A   Clear
7:55 AM 53.6 °F - 53.6 °F 100% 29.97 in 7.0 mi Calm Calm - N/A   Clear
8:15 AM 55.4 °F - 55.4 °F 100% 29.97 in 10.0 mi Calm Calm - N/A   Clear
8:35 AM 57.2 °F - 55.4 °F 94% 29.97 in 10.0 mi Calm Calm - N/A   Clear
8:55 AM 60.8 °F - 55.4 °F 82% 29.98 in 10.0 mi Calm Calm - N/A   Clear
9:15 AM 62.6 °F - 57.2 °F 82% 29.98 in 10.0 mi Calm Calm - N/A   Clear
9:35 AM 64.4 °F - 57.2 °F 77% 29.99 in 10.0 mi Calm Calm - N/A   Clear
9:55 AM 68.0 °F - 59.0 °F 73% 29.98 in 10.0 mi Variable 4.6 mph - N/A   Clear
10:15 AM 71.6 °F - 57.2 °F 60% 29.98 in 10.0 mi North 6.9 mph - N/A   Clear
10:35 AM 73.4 °F - 57.2 °F 57% 29.99 in 10.0 mi North 8.1 mph - N/A   Clear
10:55 AM 75.2 °F - 55.4 °F 50% 29.98 in 10.0 mi North 9.2 mph - N/A   Clear
11:15 AM 77.0 °F - 55.4 °F 47% 29.98 in 10.0 mi Variable 8.1 mph 13.8 mph N/A   Clear
11:35 AM 78.8 °F - 55.4 °F 44% 29.97 in 10.0 mi NNW 8.1 mph - N/A   Clear
11:55 AM 80.6 °F 80.3 °F 53.6 °F 39% 29.96 in 10.0 mi North 9.2 mph - N/A   Clear
12:15 PM 82.4 °F 81.4 °F 53.6 °F 37% 29.96 in 10.0 mi North 4.6 mph - N/A   Clear
12:35 PM 84.2 °F 82.8 °F 53.6 °F 35% 29.96 in 9.0 mi Variable 6.9 mph - N/A   Clear
12:55 PM 84.2 °F - 51.8 °F 33% 29.96 in 8.0 mi Variable 4.6 mph - N/A   Clear
1:15 PM 86.0 °F - 51.8 °F 31% 29.95 in 4.0 mi Variable 4.6 mph 11.5 mph N/A   Haze
1:35 PM 87.8 °F - 51.8 °F 29% 29.94 in 9.0 mi NNE 5.8 mph - N/A   Clear
1:55 PM 86.0 °F - 51.8 °F 31% 29.93 in 6.0 mi Variable 5.8 mph - N/A   Haze
2:15 PM 87.8 °F - 51.8 °F 29% 29.93 in 4.0 mi NE 5.8 mph - N/A   Haze
2:35 PM 87.8 °F - 51.8 °F 29% 29.92 in 8.0 mi Variable 6.9 mph - N/A   Clear
2:55 PM 87.8 °F - 51.8 °F 29% 29.92 in 7.0 mi Variable 5.8 mph - N/A   Clear
3:15 PM 89.6 °F 87.3 °F 53.6 °F 29% 29.92 in 9.0 mi WSW 8.1 mph 18.4 mph N/A   Clear
3:35 PM 87.8 °F - 51.8 °F 29% 29.92 in 10.0 mi SW 12.7 mph - N/A   Clear
3:55 PM 89.6 °F - 51.8 °F 27% 29.92 in 10.0 mi NW 6.9 mph 17.3 mph N/A   Clear
4:15 PM 87.8 °F - 51.8 °F 29% 29.92 in 10.0 mi Variable 5.8 mph 11.5 mph N/A   Clear
4:35 PM 87.8 °F - 50.0 °F 27% 29.92 in 10.0 mi West 8.1 mph 15.0 mph N/A   Clear
4:55 PM 87.8 °F - 50.0 °F 27% 29.92 in 10.0 mi West 8.1 mph - N/A   Clear
5:15 PM 87.8 °F - 50.0 °F 27% 29.92 in 10.0 mi WSW 10.4 mph - N/A   Clear
5:35 PM 86.0 °F - 48.2 °F 27% 29.92 in 10.0 mi West 8.1 mph 16.1 mph N/A   Clear
5:55 PM 86.0 °F - 48.2 °F 27% 29.92 in 10.0 mi Calm Calm - N/A   Clear
6:15 PM 84.2 °F - 48.2 °F 29% 29.93 in 10.0 mi SSW 5.8 mph - N/A   Clear
6:35 PM 82.4 °F - 48.2 °F 30% 29.93 in 10.0 mi Calm Calm - N/A   Clear
6:55 PM 80.6 °F - 48.2 °F 32% 29.93 in 10.0 mi Calm Calm - N/A   Clear
7:15 PM 75.2 °F - 48.2 °F 38% 29.93 in 10.0 mi Calm Calm - N/A   Clear
7:35 PM 78.8 °F - 48.2 °F 34% 29.94 in 10.0 mi Calm Calm - N/A   Clear
7:55 PM 73.4 °F - 48.2 °F 41% 29.94 in 10.0 mi Calm Calm - N/A   Clear
8:15 PM 75.2 °F - 48.2 °F 38% 29.95 in 10.0 mi Calm Calm - N/A   Clear
8:35 PM 69.8 °F - 48.2 °F 46% 29.95 in 10.0 mi Calm Calm - N/A   Clear
8:55 PM 68.0 °F - 48.2 °F 49% 29.96 in 10.0 mi Calm Calm - N/A   Clear
9:15 PM 68.0 °F - 46.4 °F 46% 29.96 in 10.0 mi Calm Calm - N/A   Clear
9:35 PM 68.0 °F - 48.2 °F 49% 29.96 in 10.0 mi Calm Calm - N/A   Clear
9:55 PM 62.6 °F - 46.4 °F 55% 29.97 in 10.0 mi Calm Calm - N/A   Clear
10:15 PM 62.6 °F - 46.4 °F 55% 29.97 in 10.0 mi Calm Calm - N/A   Clear
10:35 PM 64.4 °F - 51.8 °F 64% 29.97 in 10.0 mi Calm Calm - N/A   Clear
10:55 PM 59.0 °F - 46.4 °F 63% 29.98 in 10.0 mi Calm Calm - N/A   Clear
11:15 PM 59.0 °F - 46.4 °F 63% 29.98 in 10.0 mi North - - N/A   Clear
11:35 PM 62.6 °F - 50.0 °F 63% 29.97 in 10.0 mi North - - N/A   Clear
11:55 PM 57.2 °F - 44.6 °F 63% 29.97 in 10.0 mi Calm Calm - N/A   Clear